Time,TemperatureF,DewpointF,PressureIn,WindDirection,WindDirectionDegrees,WindSpeedMPH,WindSpeedGustMPH,Humidity,HourlyPrecipIn,Conditions,Clouds,dailyrainin,SoftwareType,DateUTC
2013-03-07 00:04:00,32.9,31.6,30.08,NW,315,1.0,2.0,95,0.00,RA,FEW,0.00,WeatherDisplay:10.37,2013-03-07 05:04:00,
2013-03-07 00:09:00,32.9,31.6,30.08,NW,315,1.0,2.0,95,0.00,RA,FEW,0.00,WeatherDisplay:10.37,2013-03-07 05:09:00,
2013-03-07 00:14:00,33.1,31.8,30.08,NW,315,1.0,2.0,95,0.00,CLR,FEW,0.00,WeatherDisplay:10.37,2013-03-07 05:14:00,
2013-03-07 00:19:00,33.1,31.8,30.08,NW,315,1.0,0.0,95,0.00,CLR,FEW,0.00,WeatherDisplay:10.37,2013-03-07 05:19:00,
2013-03-07 00:29:00,32.9,31.6,30.08,NW,315,0.0,0.0,95,0.00,CLR,FEW,0.00,WeatherDisplay:10.37,2013-03-07 05:29:00,
2013-03-07 00:34:00,32.9,31.6,30.08,NW,315,0.0,2.0,95,0.00,CLR,FEW,0.00,WeatherDisplay:10.37,2013-03-07 05:34:00,
2013-03-07 00:39:00,32.9,31.6,30.08,NW,315,0.0,0.0,95,0.00,CLR,FEW,0.00,WeatherDisplay:10.37,2013-03-07 05:39:00,
2013-03-07 00:44:00,32.9,31.6,30.08,NW,315,0.0,0.0,95,0.00,CLR,FEW,0.00,WeatherDisplay:10.37,2013-03-07 05:44:00,
2013-03-07 00:49:00,33.3,32.0,30.08,NW,315,0.0,1.0,95,0.00,CLR,FEW,0.00,WeatherDisplay:10.37,2013-03-07 05:49:00,
2013-03-07 00:54:00,33.1,31.8,30.08,NW,315,0.0,0.0,95,0.00,CLR,FEW,0.00,WeatherDisplay:10.37,2013-03-07 05:54:00,
2013-03-07 00:59:00,32.9,31.6,30.08,NW,315,0.0,0.0,95,0.00,CLR,FEW,0.00,WeatherDisplay:10.37,2013-03-07 05:59:00,
2013-03-07 01:04:00,32.9,31.6,30.08,NW,315,0.0,0.0,95,0.00,CLR,FEW,0.00,WeatherDisplay:10.37,2013-03-07 06:04:00,
2013-03-07 01:09:00,33.1,31.8,30.08,NW,315,0.0,0.0,95,0.00,CLR,FEW,0.00,WeatherDisplay:10.37,2013-03-07 06:09:00,
2013-03-07 01:19:00,32.9,31.6,30.08,NW,315,0.0,0.0,95,0.00,CLR,FEW,0.00,WeatherDisplay:10.37,2013-03-07 06:19:00,
2013-03-07 01:24:00,32.9,31.6,30.08,NW,315,0.0,0.0,95,0.00,CLR,FEW,0.00,WeatherDisplay:10.37,2013-03-07 06:24:00,
2013-03-07 01:29:00,32.7,31.4,30.08,NW,315,0.0,0.0,95,0.00,CLR,FEW,0.00,WeatherDisplay:10.37,2013-03-07 06:29:00,
2013-03-07 01:39:00,32.9,31.9,30.08,NW,315,0.0,0.0,96,0.00,CLR,FEW,0.00,WeatherDisplay:10.37,2013-03-07 06:39:00,
2013-03-07 01:44:00,32.7,31.7,30.08,NW,315,0.0,0.0,96,0.00,CLR,FEW,0.00,WeatherDisplay:10.37,2013-03-07 06:44:00,
2013-03-07 01:49:00,32.7,31.7,30.08,NW,315,0.0,0.0,96,0.00,CLR,FEW,0.00,WeatherDisplay:10.37,2013-03-07 06:49:00,
2013-03-07 01:59:00,32.9,31.9,30.08,NW,315,0.0,0.0,96,0.00,CLR,FEW,0.00,WeatherDisplay:10.37,2013-03-07 06:59:00,
2013-03-07 02:04:00,32.9,31.9,30.08,NW,315,0.0,0.0,96,0.00,CLR,FEW,0.00,WeatherDisplay:10.37,2013-03-07 07:04:00,
2013-03-07 02:09:00,32.7,31.7,30.08,NW,315,0.0,0.0,96,0.00,CLR,FEW,0.00,WeatherDisplay:10.37,2013-03-07 07:09:00,
2013-03-07 02:14:00,32.9,31.9,30.08,NW,315,0.0,0.0,96,0.00,CLR,FEW,0.00,WeatherDisplay:10.37,2013-03-07 07:14:00,
2013-03-07 02:19:00,32.9,31.9,30.08,NW,315,0.0,0.0,96,0.00,CLR,FEW,0.00,WeatherDisplay:10.37,2013-03-07 07:19:00,
2013-03-07 02:29:00,32.9,31.9,30.08,NW,317,0.0,0.0,96,0.00,CLR,FEW,0.00,WeatherDisplay:10.37,2013-03-07 07:29:00,
2013-03-07 02:39:00,32.7,31.7,30.08,NW,315,0.0,0.0,96,0.00,CLR,FEW,0.00,WeatherDisplay:10.37,2013-03-07 07:39:00,
2013-03-07 02:49:00,33.1,32.1,30.08,NW,315,0.0,1.0,96,0.00,CLR,FEW,0.00,WeatherDisplay:10.37,2013-03-07 07:49:00,
2013-03-07 02:59:00,33.1,32.1,30.08,WNW,301,0.0,1.0,96,0.00,CLR,FEW,0.00,WeatherDisplay:10.37,2013-03-07 07:59:00,
2013-03-07 03:04:00,33.1,32.1,30.08,WNW,295,0.0,1.0,96,0.00,CLR,FEW,0.00,WeatherDisplay:10.37,2013-03-07 08:04:00,
2013-03-07 03:09:00,33.1,32.1,30.08,WNW,295,1.0,3.0,96,0.00,CLR,FEW,0.00,WeatherDisplay:10.37,2013-03-07 08:09:00,
2013-03-07 03:19:00,33.1,32.1,30.08,WNW,295,1.0,0.0,96,0.00,CLR,FEW,0.00,WeatherDisplay:10.37,2013-03-07 08:19:00,
2013-03-07 03:29:00,33.3,32.2,30.08,WNW,295,0.0,0.0,96,0.00,CLR,FEW,0.00,WeatherDisplay:10.37,2013-03-07 08:29:00,
2013-03-07 03:34:00,33.3,32.2,30.08,WNW,295,0.0,0.0,96,0.00,CLR,FEW,0.00,WeatherDisplay:10.37,2013-03-07 08:34:00,
2013-03-07 03:39:00,33.3,32.2,30.08,WNW,295,0.0,0.0,96,0.00,CLR,FEW,0.00,WeatherDisplay:10.37,2013-03-07 08:39:00,
2013-03-07 03:49:00,33.3,32.2,30.08,WNW,295,0.0,0.0,96,0.00,CLR,FEW,0.00,WeatherDisplay:10.37,2013-03-07 08:49:00,
2013-03-07 03:54:00,33.3,32.2,30.08,WNW,295,0.0,0.0,96,0.00,CLR,FEW,0.00,WeatherDisplay:10.37,2013-03-07 08:54:00,
2013-03-07 03:59:00,33.3,32.2,30.08,WNW,295,0.0,0.0,96,0.00,CLR,FEW,0.00,WeatherDisplay:10.37,2013-03-07 08:59:00,
2013-03-07 04:04:00,33.3,32.2,30.08,WNW,295,0.0,0.0,96,0.00,CLR,FEW,0.00,WeatherDisplay:10.37,2013-03-07 09:04:00,
2013-03-07 04:09:00,33.3,32.2,30.08,WNW,295,0.0,0.0,96,0.00,CLR,FEW,0.00,WeatherDisplay:10.37,2013-03-07 09:09:00,
2013-03-07 04:19:00,33.3,32.2,30.08,WNW,285,1.0,5.0,96,0.00,CLR,FEW,0.00,WeatherDisplay:10.37,2013-03-07 09:19:00,
2013-03-07 04:29:00,32.9,31.9,30.08,WNW,285,1.0,1.0,96,0.00,CLR,FEW,0.00,WeatherDisplay:10.37,2013-03-07 09:29:00,
2013-03-07 04:34:00,33.3,32.2,30.08,WNW,285,1.0,0.0,96,0.00,CLR,FEW,0.00,WeatherDisplay:10.37,2013-03-07 09:34:00,
2013-03-07 04:39:00,33.3,32.2,30.08,WNW,285,1.0,0.0,96,0.00,CLR,FEW,0.00,WeatherDisplay:10.37,2013-03-07 09:39:00,
2013-03-07 04:49:00,33.3,32.2,30.11,West,274,0.0,1.0,96,0.00,CLR,FEW,0.00,WeatherDisplay:10.37,2013-03-07 09:49:00,
2013-03-07 04:59:00,33.3,32.2,30.11,West,270,0.0,0.0,96,0.00,CLR,FEW,0.00,WeatherDisplay:10.37,2013-03-07 09:59:00,
2013-03-07 05:04:00,33.3,32.2,30.11,West,270,0.0,0.0,96,0.00,CLR,FEW,0.00,WeatherDisplay:10.37,2013-03-07 10:04:00,
2013-03-07 05:09:00,33.3,32.2,30.11,West,270,0.0,1.0,96,0.00,CLR,FEW,0.00,WeatherDisplay:10.37,2013-03-07 10:09:00,
2013-03-07 05:19:00,33.1,32.1,30.11,WNW,285,1.0,1.0,96,0.00,CLR,FEW,0.00,WeatherDisplay:10.37,2013-03-07 10:19:00,
2013-03-07 05:29:00,33.1,32.1,30.11,WNW,289,0.0,0.0,96,0.00,CLR,FEW,0.00,WeatherDisplay:10.37,2013-03-07 10:29:00,
2013-03-07 05:39:00,33.1,32.1,30.11,WNW,290,0.0,0.0,96,0.00,CLR,FEW,0.00,WeatherDisplay:10.37,2013-03-07 10:39:00,
2013-03-07 05:44:00,33.1,32.1,30.11,WNW,290,0.0,0.0,96,0.00,CLR,FEW,0.00,WeatherDisplay:10.37,2013-03-07 10:44:00,
2013-03-07 05:49:00,33.3,32.2,30.11,WNW,289,0.0,0.0,96,0.00,CLR,FEW,0.00,WeatherDisplay:10.37,2013-03-07 10:49:00,
2013-03-07 05:59:00,33.3,32.2,30.11,WNW,290,0.0,0.0,96,0.00,CLR,FEW,0.00,WeatherDisplay:10.37,2013-03-07 10:59:00,
2013-03-07 06:09:00,33.6,32.6,30.11,WNW,289,0.0,0.0,96,0.00,CLR,FEW,0.00,WeatherDisplay:10.37,2013-03-07 11:09:00,
2013-03-07 06:19:00,33.4,32.4,30.11,WNW,290,0.0,2.0,96,0.00,CLR,FEW,0.00,WeatherDisplay:10.37,2013-03-07 11:19:00,
2013-03-07 06:29:00,33.4,32.2,30.11,WNW,289,0.0,0.0,95,0.00,CLR,FEW,0.00,WeatherDisplay:10.37,2013-03-07 11:29:00,
2013-03-07 06:34:00,33.6,32.3,30.11,WNW,290,0.0,0.0,95,0.00,CLR,FEW,0.00,WeatherDisplay:10.37,2013-03-07 11:34:00,
2013-03-07 06:39:00,33.6,32.3,30.14,WNW,290,0.0,0.0,95,0.00,CLR,FEW,0.00,WeatherDisplay:10.37,2013-03-07 11:39:00,
2013-03-07 06:49:00,33.6,32.3,30.14,WNW,288,1.0,0.0,95,0.00,CLR,FEW,0.00,WeatherDisplay:10.37,2013-03-07 11:49:00,
2013-03-07 06:59:00,33.6,32.3,30.14,WNW,285,1.0,3.0,95,0.00,CLR,FEW,0.00,WeatherDisplay:10.37,2013-03-07 11:59:00,
2013-03-07 07:04:00,33.6,32.3,30.14,WNW,285,0.0,3.0,95,0.00,CLR,FEW,0.00,WeatherDisplay:10.37,2013-03-07 12:04:00,
2013-03-07 07:14:00,33.8,32.3,30.14,WNW,285,0.0,0.0,94,0.00,CLR,FEW,0.00,WeatherDisplay:10.37,2013-03-07 12:14:00,
2013-03-07 07:19:00,33.8,32.3,30.14,WNW,285,0.0,0.0,94,0.00,CLR,FEW,0.00,WeatherDisplay:10.37,2013-03-07 12:19:00,
2013-03-07 07:29:00,34.0,32.4,30.14,WNW,285,0.0,0.0,94,0.00,CLR,FEW,0.00,WeatherDisplay:10.37,2013-03-07 12:29:00,
2013-03-07 07:34:00,33.8,32.3,30.14,WNW,285,0.0,0.0,94,0.00,CLR,FEW,0.00,WeatherDisplay:10.37,2013-03-07 12:34:00,
2013-03-07 07:39:00,34.0,32.4,30.14,WNW,285,0.0,0.0,94,0.00,CLR,FEW,0.00,WeatherDisplay:10.37,2013-03-07 12:39:00,
2013-03-07 07:49:00,34.2,32.6,30.14,WNW,285,0.0,3.0,94,0.00,CLR,FEW,0.00,WeatherDisplay:10.37,2013-03-07 12:49:00,
2013-03-07 07:59:00,34.2,32.6,30.14,NW,313,2.0,5.0,94,0.00,CLR,FEW,0.00,WeatherDisplay:10.37,2013-03-07 12:59:00,
2013-03-07 08:04:00,34.2,32.6,30.14,NW,318,3.0,8.0,94,0.00,CLR,FEW,0.00,WeatherDisplay:10.37,2013-03-07 13:04:00,
2013-03-07 08:09:00,34.2,32.6,30.14,NW,318,5.0,8.0,94,0.00,CLR,FEW,0.00,WeatherDisplay:10.37,2013-03-07 13:09:00,
2013-03-07 08:24:00,34.7,33.2,30.17,WNW,301,5.0,5.0,94,0.00,CLR,FEW,0.00,WeatherDisplay:10.37,2013-03-07 13:24:00,
2013-03-07 08:29:00,34.7,33.2,30.17,WNW,300,3.0,3.0,94,0.00,CLR,FEW,0.00,WeatherDisplay:10.37,2013-03-07 13:29:00,
2013-03-07 08:34:00,34.9,33.3,30.17,WNW,303,2.0,2.0,94,0.00,CLR,FEW,0.00,WeatherDisplay:10.37,2013-03-07 13:34:00,
2013-03-07 08:39:00,35.1,33.5,30.17,WNW,300,2.0,6.0,94,0.00,CLR,FEW,0.00,WeatherDisplay:10.37,2013-03-07 13:39:00,
2013-03-07 08:49:00,35.1,33.5,30.17,West,279,1.0,5.0,94,0.00,CLR,FEW,0.00,WeatherDisplay:10.37,2013-03-07 13:49:00,
2013-03-07 08:59:00,35.6,33.8,30.17,West,263,2.0,5.0,93,0.00,CLR,FEW,0.00,WeatherDisplay:10.37,2013-03-07 13:59:00,
2013-03-07 09:04:00,35.2,33.4,30.17,WNW,292,2.0,2.0,93,0.00,CLR,FEW,0.00,WeatherDisplay:10.37,2013-03-07 14:04:00,
2013-03-07 09:09:00,35.4,33.6,30.17,NW,305,2.0,4.0,93,0.00,CLR,FEW,0.00,WeatherDisplay:10.37,2013-03-07 14:09:00,
2013-03-07 09:19:00,35.6,33.5,30.17,WNW,293,2.0,6.0,92,0.00,CLR,FEW,0.00,WeatherDisplay:10.37,2013-03-07 14:19:00,
2013-03-07 09:24:00,35.6,33.5,30.17,West,280,3.0,6.0,92,0.00,CLR,FEW,0.00,WeatherDisplay:10.37,2013-03-07 14:24:00,
2013-03-07 09:29:00,36.0,33.9,30.17,WSW,257,3.0,6.0,92,0.00,CLR,FEW,0.00,WeatherDisplay:10.37,2013-03-07 14:29:00,
2013-03-07 09:39:00,36.1,34.0,30.17,West,273,5.0,7.0,92,0.00,CLR,FEW,0.00,WeatherDisplay:10.37,2013-03-07 14:39:00,
2013-03-07 09:45:00,32.2,31.4,30.26,North,2,6.0,12.0,97,0.00,CLR,FEW,0.00,WeatherDisplay:10.37,2013-03-07 14:45:00,
2013-03-07 09:49:00,35.8,33.7,30.17,WNW,296,7.0,9.0,92,0.00,CLR,FEW,0.00,WeatherDisplay:10.37,2013-03-07 14:49:00,
2013-03-07 09:50:00,31.8,30.8,30.26,North,5,7.0,14.0,96,0.00,CLR,FEW,0.00,WeatherDisplay:10.37,2013-03-07 14:50:00,
2013-03-07 09:55:00,31.3,30.3,30.26,NNE,22,8.0,14.0,96,0.00,CLR,FEW,0.00,WeatherDisplay:10.37,2013-03-07 14:55:00,
2013-03-07 09:59:00,36.0,33.9,30.17,West,281,7.0,7.0,92,0.00,CLR,FEW,0.00,WeatherDisplay:10.37,2013-03-07 14:59:00,
2013-03-07 10:00:00,31.6,30.4,30.26,NNE,19,10.0,12.0,95,0.00,CLR,FEW,0.00,WeatherDisplay:10.37,2013-03-07 15:00:00,
2013-03-07 10:04:00,36.9,34.8,30.17,West,280,3.0,3.0,92,0.00,CLR,FEW,0.00,WeatherDisplay:10.37,2013-03-07 15:04:00,
2013-03-07 10:05:00,31.6,30.4,30.26,North,359,10.0,10.0,95,0.00,CLR,FEW,0.00,WeatherDisplay:10.37,2013-03-07 15:05:00,
2013-03-07 10:09:00,37.0,34.9,30.17,WNW,284,3.0,5.0,92,0.00,CLR,FEW,0.00,WeatherDisplay:10.37,2013-03-07 15:09:00,
2013-03-07 10:10:00,31.8,30.3,30.26,North,357,9.0,11.0,94,0.00,CLR,FEW,0.00,WeatherDisplay:10.37,2013-03-07 15:10:00,
2013-03-07 10:14:00,36.1,33.8,30.17,West,278,3.0,7.0,91,0.00,CLR,FEW,0.00,WeatherDisplay:10.37,2013-03-07 15:14:00,
2013-03-07 10:19:00,36.5,33.8,30.17,West,275,3.0,6.0,90,0.00,CLR,FEW,0.00,WeatherDisplay:10.37,2013-03-07 15:19:00,
2013-03-07 10:29:00,36.3,33.4,30.17,WNW,297,5.0,10.0,89,0.00,CLR,FEW,0.00,WeatherDisplay:10.37,2013-03-07 15:29:00,
2013-03-07 10:39:00,36.7,33.7,30.17,NW,315,6.0,10.0,89,0.00,CLR,FEW,0.00,WeatherDisplay:10.37,2013-03-07 15:39:00,
2013-03-07 10:49:00,36.5,33.6,30.17,NW,321,7.0,8.0,89,0.00,CLR,FEW,0.00,WeatherDisplay:10.37,2013-03-07 15:49:00,
2013-03-07 10:54:00,36.9,33.9,30.20,NW,320,7.0,7.0,89,0.00,CLR,FEW,0.00,WeatherDisplay:10.37,2013-03-07 15:54:00,
2013-03-07 10:59:00,36.7,33.7,30.20,NW,320,6.0,6.0,89,0.00,CLR,FEW,0.00,WeatherDisplay:10.37,2013-03-07 15:59:00,
2013-03-07 11:09:00,36.9,33.9,30.20,NW,319,3.0,3.0,89,0.00,CLR,FEW,0.00,WeatherDisplay:10.37,2013-03-07 16:09:00,
2013-03-07 11:14:00,36.9,33.9,30.20,NW,315,6.0,6.0,89,0.00,CLR,FEW,0.00,WeatherDisplay:10.37,2013-03-07 16:14:00,
2013-03-07 11:19:00,36.7,33.7,30.20,NW,317,2.0,8.0,89,0.00,CLR,FEW,0.00,WeatherDisplay:10.37,2013-03-07 16:19:00,
2013-03-07 11:29:00,36.9,33.9,30.20,NW,326,5.0,7.0,89,0.00,CLR,FEW,0.00,WeatherDisplay:10.37,2013-03-07 16:29:00,
2013-03-07 11:39:00,37.6,34.6,30.20,NW,325,6.0,9.0,89,0.00,CLR,FEW,0.00,WeatherDisplay:10.37,2013-03-07 16:39:00,
2013-03-07 11:49:00,38.3,34.8,30.20,West,260,8.0,10.0,87,0.00,CLR,FEW,0.00,WeatherDisplay:10.37,2013-03-07 16:49:00,
2013-03-07 11:54:00,38.1,34.6,30.20,West,277,8.0,10.0,87,0.00,CLR,FEW,0.00,WeatherDisplay:10.37,2013-03-07 16:54:00,
2013-03-07 11:59:00,39.2,35.1,30.20,West,277,7.0,7.0,85,0.00,CLR,FEW,0.00,WeatherDisplay:10.37,2013-03-07 16:59:00,
2013-03-07 12:04:00,39.9,35.5,30.20,WNW,296,6.0,11.0,84,0.00,CLR,FEW,0.00,WeatherDisplay:10.37,2013-03-07 17:04:00,
2013-03-07 12:14:00,39.6,34.5,30.20,West,268,5.0,6.0,82,0.00,CLR,FEW,0.00,WeatherDisplay:10.37,2013-03-07 17:14:00,
2013-03-07 12:24:00,39.6,34.5,30.20,WNW,301,7.0,8.0,82,0.00,CLR,FEW,0.00,WeatherDisplay:10.37,2013-03-07 17:24:00,
2013-03-07 12:29:00,40.8,35.4,30.20,West,265,7.0,8.0,81,0.00,CLR,FEW,0.00,WeatherDisplay:10.37,2013-03-07 17:29:00,
2013-03-07 12:39:00,39.9,34.2,30.20,West,278,6.0,7.0,80,0.00,CLR,FEW,0.00,WeatherDisplay:10.37,2013-03-07 17:39:00,
2013-03-07 12:49:00,38.7,33.3,30.20,NNW,339,6.0,13.0,81,0.00,CLR,FEW,0.00,WeatherDisplay:10.37,2013-03-07 17:49:00,
2013-03-07 12:59:00,38.3,33.6,30.20,NNW,346,9.0,10.0,83,0.00,CLR,FEW,0.00,WeatherDisplay:10.37,2013-03-07 17:59:00,
2013-03-07 13:04:00,38.5,33.8,30.20,NNW,327,9.0,10.0,83,0.00,CLR,FEW,0.00,WeatherDisplay:10.37,2013-03-07 18:04:00,
2013-03-07 13:09:00,38.5,33.8,30.20,NW,320,9.0,10.0,83,0.00,CLR,FEW,0.00,WeatherDisplay:10.37,2013-03-07 18:09:00,
2013-03-07 13:19:00,38.3,33.0,30.17,NNW,340,8.0,8.0,81,0.00,CLR,FEW,0.00,WeatherDisplay:10.37,2013-03-07 18:19:00,
2013-03-07 13:24:00,38.3,33.3,30.17,NNW,334,7.0,8.0,82,0.00,CLR,FEW,0.00,WeatherDisplay:10.37,2013-03-07 18:24:00,
2013-03-07 13:29:00,38.3,33.9,30.17,NNW,339,7.0,8.0,84,0.00,CLR,FEW,0.00,WeatherDisplay:10.37,2013-03-07 18:29:00,
2013-03-07 13:39:00,38.1,33.7,30.17,North,353,6.0,6.0,84,0.00,CLR,FEW,0.00,WeatherDisplay:10.37,2013-03-07 18:39:00,
2013-03-07 13:49:00,38.3,34.2,30.17,NNW,329,5.0,7.0,85,0.00,CLR,FEW,0.00,WeatherDisplay:10.37,2013-03-07 18:49:00,
2013-03-07 13:54:00,38.3,34.2,30.17,NW,315,6.0,6.0,85,0.00,CLR,FEW,0.00,WeatherDisplay:10.37,2013-03-07 18:54:00,
2013-03-07 13:59:00,38.3,34.2,30.17,NW,304,6.0,6.0,85,0.00,CLR,FEW,0.00,WeatherDisplay:10.37,2013-03-07 18:59:00,
2013-03-07 14:04:00,37.9,34.1,30.17,NW,318,5.0,7.0,86,0.00,CLR,FEW,0.00,WeatherDisplay:10.37,2013-03-07 19:04:00,
2013-03-07 14:09:00,37.9,34.1,30.17,NW,325,5.0,7.0,86,0.00,CLR,FEW,0.00,WeatherDisplay:10.37,2013-03-07 19:09:00,
2013-03-07 14:19:00,37.9,34.4,30.17,NW,308,3.0,7.0,87,0.00,CLR,FEW,0.00,WeatherDisplay:10.37,2013-03-07 19:19:00,
2013-03-07 14:29:00,37.8,34.5,30.17,WNW,301,5.0,7.0,88,0.00,CLR,FEW,0.00,WeatherDisplay:10.37,2013-03-07 19:29:00,
2013-03-07 14:34:00,37.8,34.5,30.17,West,277,5.0,5.0,88,0.00,CLR,FEW,0.00,WeatherDisplay:10.37,2013-03-07 19:34:00,
2013-03-07 14:39:00,37.8,34.5,30.17,West,270,5.0,5.0,88,0.00,CLR,FEW,0.00,WeatherDisplay:10.37,2013-03-07 19:39:00,
2013-03-07 14:49:00,37.8,34.5,30.17,NW,317,3.0,9.0,88,0.00,CLR,FEW,0.00,WeatherDisplay:10.37,2013-03-07 19:49:00,
2013-03-07 14:59:00,37.6,34.1,30.17,NNW,337,5.0,8.0,87,0.00,CLR,FEW,0.00,WeatherDisplay:10.37,2013-03-07 19:59:00,
2013-03-07 15:04:00,37.4,33.9,30.17,WNW,298,5.0,5.0,87,0.00,CLR,FEW,0.00,WeatherDisplay:10.37,2013-03-07 20:04:00,
2013-03-07 15:09:00,37.0,33.8,30.17,WNW,293,3.0,7.0,88,0.00,CLR,FEW,0.00,WeatherDisplay:10.37,2013-03-07 20:09:00,
2013-03-07 15:19:00,36.9,33.6,30.17,NNW,335,5.0,6.0,88,0.00,CLR,FEW,0.00,WeatherDisplay:10.37,2013-03-07 20:19:00,
2013-03-07 15:29:00,36.7,33.7,30.20,North,354,7.0,8.0,89,0.00,CLR,FEW,0.00,WeatherDisplay:10.37,2013-03-07 20:29:00,
2013-03-07 15:39:00,36.7,33.7,30.20,NW,318,7.0,8.0,89,0.00,CLR,FEW,0.00,WeatherDisplay:10.37,2013-03-07 20:39:00,
2013-03-07 15:49:00,36.9,33.9,30.20,NW,319,7.0,11.0,89,0.00,CLR,FEW,0.00,WeatherDisplay:10.37,2013-03-07 20:49:00,
2013-03-07 15:54:00,36.5,33.0,30.20,NW,326,8.0,11.0,87,0.00,CLR,FEW,0.00,WeatherDisplay:10.37,2013-03-07 20:54:00,
2013-03-07 15:59:00,36.1,32.6,30.20,NNW,336,8.0,9.0,87,0.00,CLR,FEW,0.00,WeatherDisplay:10.37,2013-03-07 20:59:00,
2013-03-07 16:04:00,36.3,32.8,30.20,NNW,340,8.0,9.0,87,0.00,CLR,FEW,0.00,WeatherDisplay:10.37,2013-03-07 21:04:00,
2013-03-07 16:09:00,36.5,33.3,30.20,NNW,338,7.0,10.0,88,0.00,CLR,FEW,0.00,WeatherDisplay:10.37,2013-03-07 21:09:00,
2013-03-07 16:19:00,35.8,32.9,30.20,NNW,346,9.0,12.0,89,0.00,CLR,FEW,0.00,WeatherDisplay:10.37,2013-03-07 21:19:00,
2013-03-07 16:29:00,36.1,33.2,30.20,NW,307,9.0,9.0,89,0.00,CLR,FEW,0.00,WeatherDisplay:10.37,2013-03-07 21:29:00,
2013-03-07 16:34:00,36.1,33.2,30.20,NW,311,7.0,7.0,89,0.00,CLR,FEW,0.00,WeatherDisplay:10.37,2013-03-07 21:34:00,
2013-03-07 16:44:00,36.1,33.2,30.20,NNW,342,6.0,9.0,89,0.00,CLR,FEW,0.00,WeatherDisplay:10.37,2013-03-07 21:44:00,
2013-03-07 16:49:00,36.3,33.4,30.20,North,0,7.0,7.0,89,0.00,CLR,FEW,0.00,WeatherDisplay:10.37,2013-03-07 21:49:00,
2013-03-07 16:59:00,36.3,33.4,30.20,NNW,346,7.0,7.0,89,0.00,CLR,FEW,0.00,WeatherDisplay:10.37,2013-03-07 21:59:00,
2013-03-07 17:04:00,36.3,33.1,30.20,North,358,6.0,6.0,88,0.00,CLR,FEW,0.00,WeatherDisplay:10.37,2013-03-07 22:04:00,
2013-03-07 17:09:00,36.5,33.3,30.20,North,355,6.0,6.0,88,0.00,CLR,FEW,0.00,WeatherDisplay:10.37,2013-03-07 22:09:00,
2013-03-07 17:19:00,36.3,32.8,30.20,North,0,6.0,7.0,87,0.00,CLR,FEW,0.00,WeatherDisplay:10.37,2013-03-07 22:19:00,
2013-03-07 17:24:00,36.3,32.8,30.20,North,0,6.0,6.0,87,0.00,CLR,FEW,0.00,WeatherDisplay:10.37,2013-03-07 22:24:00,
2013-03-07 17:29:00,36.3,32.8,30.20,NNW,348,6.0,6.0,87,0.00,CLR,FEW,0.00,WeatherDisplay:10.37,2013-03-07 22:29:00,
2013-03-07 17:39:00,36.3,32.8,30.20,NNW,337,5.0,5.0,87,0.00,CLR,FEW,0.00,WeatherDisplay:10.37,2013-03-07 22:39:00,
2013-03-07 17:49:00,36.1,32.6,30.23,North,5,5.0,5.0,87,0.00,CLR,FEW,0.00,WeatherDisplay:10.37,2013-03-07 22:49:00,
2013-03-07 17:54:00,36.1,32.6,30.23,North,7,3.0,3.0,87,0.00,CLR,FEW,0.00,WeatherDisplay:10.37,2013-03-07 22:54:00,
2013-03-07 17:59:00,36.1,32.6,30.23,NNW,346,3.0,5.0,87,0.00,CLR,FEW,0.00,WeatherDisplay:10.37,2013-03-07 22:59:00,
2013-03-07 18:04:00,36.1,32.6,30.23,NNW,342,3.0,6.0,87,0.00,CLR,FEW,0.00,WeatherDisplay:10.37,2013-03-07 23:04:00,
2013-03-07 18:09:00,36.1,32.6,30.23,NNW,341,3.0,5.0,87,0.00,CLR,FEW,0.00,WeatherDisplay:10.37,2013-03-07 23:09:00,
2013-03-07 18:19:00,35.1,31.9,30.23,North,3,6.0,7.0,88,0.00,CLR,FEW,0.00,WeatherDisplay:10.37,2013-03-07 23:19:00,
2013-03-07 18:29:00,35.1,32.1,30.23,NNE,12,6.0,6.0,89,0.00,CLR,FEW,0.00,WeatherDisplay:10.37,2013-03-07 23:29:00,
2013-03-07 18:39:00,35.1,32.4,30.23,North,357,3.0,4.0,90,0.00,CLR,FEW,0.00,WeatherDisplay:10.37,2013-03-07 23:39:00,
2013-03-07 18:49:00,35.2,32.6,30.23,NNW,345,2.0,6.0,90,0.00,CLR,FEW,0.00,WeatherDisplay:10.37,2013-03-07 23:49:00,
2013-03-07 18:59:00,35.2,32.9,30.23,NNW,344,2.0,2.0,91,0.00,CLR,FEW,0.00,WeatherDisplay:10.37,2013-03-07 23:59:00,
2013-03-07 19:04:00,35.2,32.9,30.23,NNW,336,2.0,5.0,91,0.00,CLR,FEW,0.00,WeatherDisplay:10.37,2013-03-08 00:04:00,
2013-03-07 19:09:00,35.2,32.9,30.23,NNW,333,2.0,5.0,91,0.00,CLR,FEW,0.00,WeatherDisplay:10.37,2013-03-08 00:09:00,
2013-03-07 19:19:00,35.1,32.7,30.23,NNW,340,2.0,6.0,91,0.00,CLR,FEW,0.00,WeatherDisplay:10.37,2013-03-08 00:19:00,
2013-03-07 19:29:00,34.9,32.5,30.23,NNW,347,2.0,6.0,91,0.00,CLR,FEW,0.00,WeatherDisplay:10.37,2013-03-08 00:29:00,
2013-03-07 19:39:00,34.5,32.7,30.23,NNW,340,2.0,2.0,93,0.00,CLR,FEW,0.00,WeatherDisplay:10.37,2013-03-08 00:39:00,
2013-03-07 19:49:00,34.3,32.5,30.23,NNW,330,2.0,2.0,93,0.00,CLR,FEW,0.00,WeatherDisplay:10.37,2013-03-08 00:49:00,
2013-03-07 19:59:00,34.5,33.0,30.23,NNW,334,2.0,3.0,94,0.00,CLR,FEW,0.00,WeatherDisplay:10.37,2013-03-08 00:59:00,
2013-03-07 20:04:00,34.3,32.8,30.23,NNW,340,2.0,3.0,94,0.00,CLR,FEW,0.00,WeatherDisplay:10.37,2013-03-08 01:04:00,
2013-03-07 20:09:00,34.3,32.8,30.23,NNW,340,2.0,0.0,94,0.00,CLR,FEW,0.00,WeatherDisplay:10.37,2013-03-08 01:09:00,
2013-03-07 20:14:00,34.0,32.4,30.23,North,354,2.0,6.0,94,0.00,CLR,FEW,0.00,WeatherDisplay:10.37,2013-03-08 01:14:00,
2013-03-07 20:19:00,34.2,32.9,30.23,North,1,2.0,5.0,95,0.00,CLR,FEW,0.00,WeatherDisplay:10.37,2013-03-08 01:19:00,
2013-03-07 20:29:00,34.2,32.9,30.23,North,358,2.0,4.0,95,0.00,CLR,FEW,0.00,WeatherDisplay:10.37,2013-03-08 01:29:00,
2013-03-07 20:34:00,34.0,33.0,30.26,North,360,3.0,7.0,96,0.00,CLR,FEW,0.00,WeatherDisplay:10.37,2013-03-08 01:34:00,
2013-03-07 20:39:00,33.8,32.8,30.26,North,360,3.0,9.0,96,0.00,CLR,FEW,0.00,WeatherDisplay:10.37,2013-03-08 01:39:00,
2013-03-07 20:49:00,33.4,32.4,30.26,North,352,7.0,13.0,96,0.00,CLR,FEW,0.00,WeatherDisplay:10.37,2013-03-08 01:49:00,
2013-03-07 20:59:00,33.1,32.1,30.26,North,349,6.0,6.0,96,0.00,CLR,FEW,0.00,WeatherDisplay:10.37,2013-03-08 01:59:00,
2013-03-07 21:04:00,33.3,32.2,30.26,North,10,5.0,6.0,96,0.00,CLR,FEW,0.00,WeatherDisplay:10.37,2013-03-08 02:04:00,
2013-03-07 21:09:00,33.1,32.1,30.26,North,7,5.0,5.0,96,0.00,CLR,FEW,0.00,WeatherDisplay:10.37,2013-03-08 02:09:00,
2013-03-07 21:19:00,32.9,32.1,30.26,North,10,6.0,8.0,97,0.00,CLR,FEW,0.00,WeatherDisplay:10.37,2013-03-08 02:19:00,
2013-03-07 21:29:00,32.7,32.0,30.26,North,349,7.0,10.0,97,0.00,CLR,FEW,0.00,WeatherDisplay:10.37,2013-03-08 02:29:00,
2013-03-07 21:39:00,32.7,32.0,30.26,North,6,7.0,7.0,97,0.00,CLR,FEW,0.00,WeatherDisplay:10.37,2013-03-08 02:39:00,